Location: Gull Harbor
(47.1000°N, 122.9000°W)
Time: 13:04:20
(UTC-07:00)

Envisat - Pass Details

Date: 30 March 2019
Orbit: 764 x 766 km, 98.2° (Epoch: 23 April)

Event Time Altitude Azimuth Distance (km) Brightness Sun altitude
Rises 20:01:52 0° 177° (S) 3,220 6.1 -4.8°
Reaches altitude 10° 20:04:13 10° 182° (S) 2,298 5.4 -5.2°
Maximum altitude 20:09:11 55° 260° (W) 917 3.9 -6.0°
Drops below altitude 10° 20:14:11 10° 338° (NNW) 2,314 6.0 -6.9°
Sets 20:16:34 0° 343° (NNW) 3,245 6.7 -7.2°
